TimeCST,TemperatureF,Dew PointF,Humidity,Sea Level PressureIn,VisibilityMPH,Wind Direction,Wind SpeedMPH,Gust SpeedMPH,PrecipitationIn,Events,Conditions,WindDirDegrees,DateUTC
12:55 AM,25.2,24.3,96,30.27,10.0,Calm,Calm,-,N/A,,Clear,0,2013-01-03 06:55:00
1:55 AM,24.8,24.4,99,30.27,10.0,Calm,Calm,-,N/A,,Clear,0,2013-01-03 07:55:00
2:55 AM,23.0,22.3,97,30.29,10.0,Calm,Calm,-,N/A,,Clear,0,2013-01-03 08:55:00
3:55 AM,23.4,21.9,94,30.29,10.0,Calm,Calm,-,N/A,,Clear,0,2013-01-03 09:55:00
4:55 AM,23.2,22.1,96,30.30,10.0,Calm,Calm,-,N/A,,Clear,0,2013-01-03 10:55:00
5:55 AM,20.7,19.8,96,30.33,10.0,SW,3.5,-,N/A,,Clear,230,2013-01-03 11:55:00
6:55 AM,20.1,19.9,99,30.34,10.0,Calm,Calm,-,N/A,,Clear,0,2013-01-03 12:55:00
7:55 AM,21.7,21.2,98,30.34,10.0,Calm,Calm,-,N/A,,Clear,0,2013-01-03 13:55:00
8:55 AM,28.4,24.3,84,30.35,10.0,Calm,Calm,-,N/A,,Clear,0,2013-01-03 14:55:00
9:55 AM,32.9,22.3,65,30.37,10.0,WNW,8.1,-,N/A,,Clear,290,2013-01-03 15:55:00
10:55 AM,34.9,22.3,60,30.37,10.0,WNW,5.8,-,N/A,,Clear,290,2013-01-03 16:55:00
11:55 AM,37.2,21.7,54,30.34,10.0,NW,5.8,-,N/A,,Clear,310,2013-01-03 17:55:00
12:55 PM,38.5,24.8,58,30.34,10.0,NW,8.1,-,N/A,,Clear,310,2013-01-03 18:55:00
1:55 PM,39.9,22.5,50,30.34,10.0,West,10.4,-,N/A,,Clear,280,2013-01-03 19:55:00
2:55 PM,40.3,24.3,53,30.35,10.0,NNW,8.1,-,N/A,,Clear,330,2013-01-03 20:55:00
3:55 PM,39.2,25.9,59,30.36,10.0,NW,5.8,-,N/A,,Clear,320,2013-01-03 21:55:00
4:55 PM,36.7,25.5,64,30.37,10.0,WNW,4.6,-,N/A,,Clear,300,2013-01-03 22:55:00
5:55 PM,36.0,24.8,64,30.38,10.0,NW,3.5,-,N/A,,Clear,320,2013-01-03 23:55:00
6:55 PM,31.1,25.3,79,30.40,10.0,Calm,Calm,-,N/A,,Clear,0,2013-01-04 00:55:00
7:55 PM,30.9,23.0,72,30.40,10.0,Calm,Calm,-,N/A,,Clear,0,2013-01-04 01:55:00
8:55 PM,27.9,24.8,88,30.43,10.0,Calm,Calm,-,N/A,,Clear,0,2013-01-04 02:55:00
9:55 PM,26.1,24.4,94,30.45,10.0,Calm,Calm,-,N/A,,Clear,0,2013-01-04 03:55:00
10:55 PM,26.4,23.7,90,30.44,10.0,Calm,Calm,-,N/A,,Clear,0,2013-01-04 04:55:00
11:55 PM,25.0,21.2,86,30.43,10.0,SSW,3.5,-,N/A,,Clear,210,2013-01-04 05:55:00